GW3532 Weather Reports


time (UTC)temp
C
wind
direction
speed
KPH
gust
KPH
rain 1hr
cm
rain 24hr
cm
rain mn
cm
humidity
%
barometer
mb
20260505121510 15 90 0.0 1.6 0.00 0.00 0.00 77 1015.3
20260505120017 13 90 0.0 1.6 0.00 0.00 0.00 81 1015.3
20260505114519 12 91 0.0 0.0 0.00 0.00 0.00 89 1015.2
20260505113033 10 92 0.0 0.0 0.00 0.00 0.00 94 1015.1
20260505111538 8 92 0.0 1.6 0.00 0.00 0.00 94 1015.0
20260505101533 8 88 0.0 0.0 0.00 0.00 0.00 92 1014.6
20260505100026 8 88 0.0 0.0 0.00 0.00 0.00 92 1014.6
20260505094512 9 88 0.0 0.0 0.00 0.00 0.00 90 1014.5
20260505093016 9 88 0.0 0.0 0.00 0.00 0.00 89 1014.7
20260505091521 10 88 0.0 0.0 0.00 0.00 0.00 88 1014.6
20260505090030 10 88 0.0 0.0 0.00 0.00 0.00 86 1014.6
20260505084530 10 88 0.0 0.0 0.00 0.00 0.00 86 1014.4
20260505083015 11 88 0.0 1.6 0.00 0.00 0.00 84 1014.2
20260505081521 11 88 0.0 0.0 0.00 0.00 0.00 81 1014.1
20260505074507 13 88 0.0 1.6 0.00 0.00 0.00 74 1013.9
20260505073014 14 196 0.0 1.6 0.00 0.00 0.00 72 1013.9
20260505071517 15 289 0.0 4.8 0.00 0.00 0.00 69 1014.0
20260505070024 15 270 0.0 3.2 0.00 0.00 0.00 67 1014.0
20260505064524 16 232 3.2 8.0 0.00 0.00 0.00 66 1013.9
20260505061515 15 165 0.0 4.8 0.00 0.00 0.00 68 1013.9
20260505060018 15 57 0.0 4.8 0.00 0.00 0.00 69 1013.7
20260505054524 15 53 0.0 4.8 0.00 0.00 0.00 70 1013.7
20260505053027 15 21 0.0 3.2 0.00 0.00 0.00 72 1013.5
20260505051512 15 108 0.0 4.8 0.00 0.00 0.00 72 1013.5
20260505041525 15 109 0.0 0.0 0.00 0.00 0.00 71 1013.5
20260505040033 16 137 0.0 1.6 0.00 0.00 0.00 68 1013.5
20260505034527 16 98 0.0 3.2 0.00 0.00 0.00 67 1013.6
20260505033022 16 106 0.0 4.8 0.00 0.00 0.00 69 1013.6
20260505031524 16 107 0.0 1.6 0.00 0.00 0.00 67 1013.8
20260505030024 17 12 0.0 3.2 0.00 0.00 0.00 65 1013.8
20260505024516 17 176 0.0 3.2 0.00 0.00 0.00 65 1013.9
20260505023003 17 236 0.0 11.3 0.00 0.00 0.00 63 1013.9
20260505021504 17 235 1.6 4.8 0.00 0.00 0.00 64 1013.8
20260505020012 17 80 0.0 9.7 0.00 0.00 0.00 64 1013.5
20260505014508 17 276 0.0 6.4 0.00 0.00 0.00 66 1013.7
20260505013004 17 266 0.0 3.2 0.00 0.00 0.00 67 1013.5
20260505011504 17 283 0.0 1.6 0.00 0.00 0.00 66 1013.3
20260505010004 17 205 0.0 3.2 0.00 0.00 0.00 63 1013.3
20260505004514 18 96 0.0 1.6 0.00 0.00 0.00 61 1013.0
20260505003010 19 111 0.0 3.2 0.00 0.00 0.00 59 1013.0
20260505001504 20 148 0.0 6.4 0.00 0.00 0.00 57 1013.0
20260505000003 21 154 0.0 3.2 0.00 0.00 0.00 55 1012.8
20260504234505 21 234 0.0 1.6 0.00 0.00 0.00 56 1012.8
20260504233008 21 248 0.0 1.6 0.00 0.00 0.00 54 1012.8
20260504231509 22 224 0.0 3.2 0.00 0.00 0.00 52 1012.8
20260504230003 22 133 0.0 6.4 0.00 0.00 0.00 51 1012.7
20260504224506 23 231 1.6 11.3 0.00 0.00 0.00 48 1012.9
20260504223009 23 275 3.2 11.3 0.00 0.00 0.00 46 1013.0
20260504221511 23 278 3.2 14.5 0.00 0.00 0.00 43 1013.0
20260504220029 25 219 6.4 20.9 0.00 0.00 0.00 42 1013.0
20260504214504 25 272 4.8 14.5 0.00 0.00 0.00 43 1013.0
20260504213008 26 261 4.8 17.7 0.00 0.00 0.00 43 1012.9
20260504211508 25 329 3.2 16.1 0.00 0.00 0.00 45 1013.1
20260504210013 26 219 4.8 14.5 0.00 0.00 0.00 44 1013.2
20260504204531 25 234 6.4 17.7 0.00 0.00 0.00 45 1013.4
20260504203015 25 207 4.8 17.7 0.00 0.00 0.00 44 1013.4
20260504201507 25 242 8.0 22.5 0.00 0.00 0.00 45 1013.7
20260504200010 25 254 4.8 16.1 0.00 0.00 0.00 45 1013.9
20260504194516 25 216 6.4 19.3 0.00 0.00 0.00 45 1014.0
20260504193020 26 275 4.8 14.5 0.00 0.00 0.00 44 1014.3
20260504191522 25 235 6.4 14.5 0.00 0.00 0.00 45 1014.5
20260504190012 25 219 3.2 14.5 0.00 0.00 0.00 45 1014.7
20260504184513 25 225 4.8 14.5 0.00 0.00 0.00 47 1014.9
20260504183017 25 267 6.4 14.5 0.00 0.00 0.00 47 1015.2
20260504181521 24 224 3.2 11.3 0.00 0.00 0.00 49 1015.3
20260504174515 23 274 1.6 14.5 0.00 0.00 0.00 51 1015.5
20260504173016 23 216 4.8 16.1 0.00 0.00 0.00 47 1015.9
20260504171506 22 249 8.0 22.5 0.00 0.00 0.00 48 1016.1